Location: Curgies
(50.3298°N, 3.6030°E)
Time: 21:47:31
(UTC+00:00)

Daily predictions for brighter satellites

Satellite Brightness Start Highest point End
(mag) Time Altitude Azimuth Time Altitude Azimuth Time Altitude Azimuth
Cosmos 2369 Rocket 3.2 18:08:49 10° NNW 18:13:49 30° NE 18:18:46 10° ESE
Helios 1B rocket 2.3 18:12:12 10° SSE 18:16:02 88° ENE 18:19:54 10° NNW
CZ-4 R/B 2.4 18:13:05 10° ESE 18:16:21 26° ENE 18:19:41 10° N
Cosmos 1464 Rocket 4.3 18:12:32 10° SSE 18:18:33 47° E 18:24:37 10° NNE
NOSS 3-4 (A) 4.1 18:13:50 10° NW 18:20:16 54° NE 18:27:44 10° ESE
NOSS 3-4 (C) 4.1 18:13:56 10° NW 18:20:22 54° NE 18:27:49 10° ESE
Cosmos 1980 3.7 18:14:44 10° SSW 18:20:24 75° ESE 18:26:06 10° NNE
CZ-4B R/B 3.7 18:22:27 10° SE 18:26:05 32° ENE 18:29:51 10° N
Meteor 1-13 Rocket 4.3 18:20:47 10° N 18:26:35 63° ENE 18:32:13 10° SSE
Cosmos 1805 Rocket 4.5 18:25:39 10° SE 18:29:16 26° E 18:32:54 10° NNE
Landsat 7 4.3 18:25:28 10° S 18:30:08 67° WSW 18:34:50 10° NNW
NOSS 0 Rocket 4.2 18:26:31 10° SW 18:32:45 76° WNW 18:39:01 10° NNE
Cosmos 1975 4.2 18:32:30 10° SE 18:35:11 18° E 18:37:54 10° NE
Resurs 01 Rocket 2.4 18:31:34 10° SE 18:35:29 32° ENE 18:39:24 10° N
Cosmos 1707 3.3 18:35:11 10° NNW 18:38:40 55° W 18:42:07 10° S
Okean-O 4.4 18:39:41 11° E 18:41:51 15° ENE 18:44:20 10° NNE
Cosmos 2034 Rocket 4.1 18:39:48 10° SSE 18:45:42 50° E 18:51:37 10° NNE
USA 306 3.0 18:42:52 10° WNW 18:45:56 44° N 18:48:52 14° ENE
ISS -3.6 18:43:04 10° W 18:46:25 70° N 18:49:13 14° ENE
Meteor PRIRODA 3.2 18:44:11 10° SSE 18:47:26 68° ENE 18:50:42 10° N
Cosmos 2208 Rocket 4.0 18:46:01 10° SSW 18:51:17 76° ESE 18:56:41 10° NNE
GENESIS II 4.3 18:49:46 10° SW 18:53:15 65° NW 18:56:46 10° NE
Cosmos 1733 3.1 18:51:03 10° SSW 18:54:28 75° W 18:57:54 10° N
ACS3 Solar Sail 2.4 18:48:57 10° SE 18:54:52 40° ENE 19:00:46 10° N
SAR-Lupe-2 3.8 18:51:27 10° S 18:55:01 71° WSW 18:58:37 10° NNW
SL-16 R/B 2.5 18:49:57 10° S 18:55:15 43° ESE 19:00:36 10° NE
Cosmos 1315 Rocket 2.9 18:52:41 10° NNW 18:56:42 81° WSW 19:00:38 10° S
Cosmos 1805 3.2 18:54:38 10° S 18:58:10 50° E 19:01:43 10° NNE
Cosmos 1536 3.4 18:58:01 10° SSW 19:01:48 58° WNW 19:05:38 10° N
Resurs 1-3 4.0 18:59:00 10° S 19:03:17 64° WSW 19:07:37 10° NNW
SPOT 1/Viking Rocket 3.8 19:01:44 10° S 19:06:53 71° WSW 19:12:02 10° NNW
Okean 3 4.5 19:03:31 10° N 19:07:06 27° ENE 19:08:32 22° ESE
Cosmos 1428 Rocket 4.4 19:01:36 10° N 19:07:44 79° ENE 19:13:52 10° SSE
ATLAS CENTAUR R/B 2.8 19:04:45 10° WSW 19:08:06 33° NW 19:11:37 10° NNE
Cosmos 1943 4.4 19:07:43 19° ESE 19:08:31 20° E 19:12:27 10° NE
Meteor 1-11 Rocket 3.7 19:02:58 10° SSW 19:08:33 86° WNW 19:14:06 10° NNE
SL-14 R/B 3.1 19:05:13 10° N 19:09:02 69° ENE 19:12:47 10° SSE
ATLAS 2AS CENTAUR R/B 4.2 19:04:10 10° NW 19:10:03 27° N 19:15:44 10° ENE
Meteor 2-9 Rocket 4.1 19:06:34 10° S 19:11:58 88° E 19:17:34 10° NNE
Meteor 1-21 4.3 19:08:20 10° N 19:14:06 64° ENE 19:19:45 10° SSE
ADEOS 4.1 19:09:00 10° S 19:14:10 62° WSW 19:19:22 10° NNW
CSL-04 Rocket 3.6 19:11:58 11° SSE 19:16:58 65° ENE 19:22:13 10° N
Cosmos 2263 4.4 19:12:28 10° NNW 19:18:05 55° NE 19:21:31 23° SE
CZ-4B DEB 4.5 19:13:12 10° S 19:18:40 70° WSW 19:24:10 10° NNW
CZ-4B R/B 3.1 19:13:27 10° SSE 19:18:48 73° ENE 19:24:08 10° NNW
Cosmos 1500 Rocket 3.6 19:19:19 10° SSW 19:23:40 80° WNW 19:28:00 10° N
USA 186 1.8 19:24:40 19° S 19:26:54 78° W 19:30:07 10° NNW
SJ-6B 4.2 19:26:38 10° SSW 19:29:56 34° W 19:33:16 10° NNW
Cosmos 773 Rocket 4.0 19:26:38 10° SSW 19:31:56 87° WNW 19:37:16 10° NNE
Cosmos 1743 Rocket 3.5 19:29:18 10° S 19:33:38 84° W 19:38:02 10° N
Cosmos 2237 Rocket 3.6 19:28:35 10° WSW 19:33:51 40° NW 19:39:09 10° NNE
SL-08 R/B 4.1 19:31:23 10° N 19:36:13 56° WNW 19:40:59 10° SW
Cosmos 2026 Rocket 3.9 19:30:30 10° N 19:36:44 87° W 19:42:50 10° S
NOSS 3-3 (C) 4.3 19:31:44 10° WSW 19:37:15 65° NW 19:43:52 10° NE
Helios 1A 3.4 19:33:20 10° N 19:37:21 60° WNW 19:41:22 10° SSW
USA 267 3.9 19:31:14 10° ENE 19:37:26 52° N 19:43:46 10° W
SeaSat 1 3.7 19:34:40 10° NNE 19:39:19 43° NW 19:43:56 10° WSW
Cosmos 724 4.2 19:34:05 10° SW 19:39:52 90° SE 19:45:44 10° NE
Cosmos 1766 3.4 19:41:42 44° ENE 19:41:42 44° ENE 19:44:52 10° NNE
Tiangong 0.4 19:40:26 10° SSW 19:41:06 13° SSW 19:41:06 13° SSW
Sich 1 3.7 19:38:19 10° SSW 19:42:33 56° WNW 19:46:50 10° N
Okean O Rocket 1.5 19:41:02 31° SSE 19:43:06 76° ENE 19:47:31 10° NNW
CARTOSAT-1 4.0 19:40:01 12° S 19:43:53 59° W 19:48:06 10° NNW
USA 32 4.3 19:38:59 10° N 19:44:12 68° W 19:49:24 10° S
GEOS 3 Rocket 3.5 19:41:58 32° SE 19:44:28 85° NE 19:49:40 10° NW
Cosmos 1092 Rocket 4.2 19:40:59 10° NNW 19:47:20 77° W 19:53:40 10° S
CZ-4 R/B 3.0 19:47:14 10° SSW 19:50:46 32° W 19:54:22 10° NNW
BREEZE-M R/B 4.4 19:46:32 10° W 19:51:26 68° SSW 20:00:21 26° ESE
Cosmos 1656 Rocket 4.3 19:45:57 10° NW 19:51:26 54° WSW 19:55:32 17° S
Cosmos 2297 4.1 19:47:58 10° NW 19:53:31 59° WSW 19:57:17 21° S
SPOT 5 2.7 19:54:01 50° ESE 19:54:41 56° ENE 19:58:57 10° N
Cosmos 1607 4.2 19:50:21 10° SW 19:56:49 72° NW 20:03:16 10° NE
Cosmos 2369 Rocket 2.5 19:52:37 10° NNW 19:58:17 66° WSW 20:01:28 26° S
ARIANE 6 FM1 Upper Stage 2.7 19:54:15 10° SSW 19:58:11 58° SSE 19:58:11 58° SSE
Aureole 3 Rocket 4.1 19:53:25 10° SSW 19:58:39 50° WNW 20:02:32 10° N
MOS 1-B 4.5 19:54:21 18° S 19:58:47 73° WSW 20:04:36 10° NNW
Okean 2 3.4 19:55:18 10° N 19:59:08 58° ENE 19:59:08 58° ENE
Cosmos 2344 4.5 19:52:31 10° NW 19:59:46 43° NNE 20:05:08 23° E
Terra 2.5 20:00:59 36° ENE 20:00:59 36° ENE 20:05:17 10° N
BREEZE-M DEB (TANK) 3.9 19:40:39 10° W 20:01:07 83° S 20:03:29 39° ESE
Aureole 3 4.0 19:58:38 10° N 20:03:08 55° ENE 20:03:54 50° ESE
CRYOSAT 2 4.2 19:58:28 10° N 20:03:24 78° E 20:05:19 37° S
Cosmos 1634 Rocket 4.0 20:00:17 10° S 20:06:36 82° W 20:12:59 10° N
Cosmos 1441 Rocket 3.7 20:03:44 14° SSW 20:06:41 52° WNW 20:10:10 10° N
Okean 1-7 3.1 20:03:23 10° N 20:07:26 58° ENE 20:07:26 58° ENE
Cosmos 2228 Rocket 3.5 20:03:32 10° NNW 20:08:04 64° W 20:10:04 32° SSW
Cosmos 1633 Rocket 2.9 20:09:43 71° SE 20:10:04 77° E 20:14:29 10° NNE
Cosmos 1975 3.9 20:06:54 10° SSW 20:10:36 43° WNW 20:14:22 10° N
NOSS 3-4 (A) 4.4 20:04:42 10° NW 20:11:19 52° WSW 20:15:59 24° S
NOSS 3-4 (C) 4.4 20:04:48 10° NW 20:11:26 52° WSW 20:16:03 24° S
Resurs 01 Rocket 3.2 20:07:53 10° SSW 20:11:52 33° W 20:15:54 10° NNW
Cosmos 2084 Rocket 3.3 20:07:57 10° SW 20:12:16 84° NW 20:13:12 54° NE
MetOp-B 4.0 20:11:40 51° SE 20:13:04 78° ENE 20:18:27 10° NNW
Cosmos 1538 Rocket 4.1 20:13:37 55° E 20:13:37 55° E 20:18:43 10° NNE
RESURS DK-1 4.3 20:12:29 10° N 20:14:56 18° NNE 20:14:56 18° NNE
Cosmos 1980 Rocket 4.5 20:14:26 10° N 20:16:29 12° NNE 20:18:32 10° NE
Okean-O 2.5 20:17:08 70° S 20:17:36 84° WSW 20:22:03 10° NNW
USA 306 3.1 20:15:10 10° WNW 20:17:50 52° WNW 20:17:50 52° WNW
Cosmos 1862 Rocket 4.1 20:16:03 10° NNW 20:20:26 58° W 20:21:39 42° SSW
MOS 1 Rocket 3.5 20:20:11 60° SSE 20:21:09 81° ENE 20:26:35 10° NNW
SL-08 ROCKET BODY 4.4 20:16:08 10° N 20:22:15 64° ENE 20:23:16 56° ESE
ISS -2.3 20:19:58 10° WNW 20:22:09 38° WNW 20:22:09 38° WNW
Spot 2 Rocket 3.8 20:23:41 48° ENE 20:23:41 48° ENE 20:28:19 10° N
Cosmos 1707 Rocket 4.4 20:19:16 10° NNW 20:23:31 47° W 20:25:01 33° SW
ERS-1 Rocket 2.8 20:26:14 70° E 20:26:23 70° ENE 20:31:24 10° N
IRS-1A Rocket 4.2 20:27:24 61° SE 20:28:26 81° ENE 20:34:04 10° NNW
Cosmos 1666 Rocket 4.0 20:28:15 38° SW 20:29:41 58° WNW 20:33:59 10° N
Cosmos 1470 Rocket 4.1 20:33:03 51° NNE 20:33:03 51° NNE 20:36:27 10° NNE
Cosmos 1703 Rocket 4.1 20:28:56 10° N 20:32:25 51° NNE 20:32:25 51° NNE
Cosmos 2142 Rocket 4.4 20:32:14 34° S 20:35:08 87° W 20:41:22 10° N
Cosmos 2279 Rocket 4.1 20:33:08 17° SSW 20:38:06 72° W 20:44:21 10° N
ACS3 Solar Sail 2.8 20:33:51 16° SSW 20:38:48 46° W 20:44:58 10° NNW
SL-16 R/B 3.5 20:34:07 10° WSW 20:39:26 40° NW 20:44:47 10° NNE
SPOT 3 Rocket 3.9 20:41:30 52° NE 20:41:30 52° NE 20:45:56 10° N
Meteor 2-5 Rocket 4.3 20:39:23 10° N 20:44:37 45° NE 20:44:37 45° NE
ATLAS CENTAUR R/B 4.2 20:44:55 10° NW 20:46:34 12° NNW 20:48:14 10° N
Cosmos 1943 3.2 20:49:01 31° SW 20:51:52 79° WNW 20:57:34 10° NNE
Ariane Rocket 3.3 20:57:45 60° N 20:57:45 60° N 21:01:59 10° NNW
Cosmos 1697 Rocket 4.1 20:53:51 10° NNW 20:58:31 26° NE 20:58:31 26° NE
ATLAS 2AS CENTAUR R/B 3.3 20:56:07 10° NW 21:02:42 43° NNE 21:03:49 40° NE
Cosmos 489 Rocket 4.3 20:56:29 10° NNW 21:02:54 84° ENE 21:02:58 83° E
Cosmos 1655 Rocket 3.9 20:56:57 10° N 21:03:24 83° E 21:03:30 83° E
IRS-1C Rocket 4.4 21:04:12 60° W 21:04:12 60° W 21:09:24 10° NNW
Okean O Rocket 4.2 21:18:23 12° WSW 21:19:53 14° W 21:22:18 10° NW
USA 267 3.7 21:18:34 48° NE 21:19:56 56° NNE 21:26:19 10° WNW
Cosmos 2056 Rocket 4.1 21:16:05 10° NNW 21:20:07 53° NNW 21:20:07 53° NNW
Terra 3.5 21:39:40 29° WNW 21:39:40 29° WNW 21:42:50 10° NNW
Cosmos 1980 Rocket 3.7 21:57:14 10° NNW 22:00:49 29° NNE 22:00:49 29° NNE
Cosmos 2344 3.9 22:06:49 10° NW 22:14:59 79° SW 22:15:07 78° SW
Cosmos 1697 Rocket 4.3 22:37:28 10° NNW 22:40:13 30° NW 22:40:13 30° NW
Cosmos 2360 Rocket 4.5 22:46:33 10° N 22:50:02 16° NNE 22:50:34 16° NE
ATLAS 2AS CENTAUR R/B 3.8 22:47:12 10° NW 22:51:13 37° WNW 22:51:13 37° WNW
USA 267 4.4 23:05:55 34° WNW 23:05:55 34° WNW 23:09:24 10° WNW
Cosmos 2322 Rocket 4.2 23:03:35 10° NNW 23:07:17 22° NNE 23:07:17 22° NNE
Cosmos 2082 Rocket 4.5 23:26:45 17° NE 23:26:45 17° NE 23:27:59 10° NE
SL-16 R/B 4.0 23:32:04 10° NNW 23:34:52 27° N 23:34:52 27° N
CZ-3B R/B 4.2 23:22:01 10° WNW 23:36:26 56° WNW 23:36:26 56° WNW
Cosmos 1980 Rocket 4.4 23:41:08 10° NW 23:42:32 18° NW 23:42:32 18° NW
Cosmos 2333 Rocket 4.0 23:48:06 10° NNW 23:51:31 27° NNE 23:51:31 27° NNE
